Weather History for Renton, WA

Change the Weather History Date:

Tuesday, May 27, 2014

  Actual Average Record
Temperature  
Mean Temperature 58 °F -  
Max Temperature 66 °F 65 °F 88 °F (2005)
Min Temperature 51 °F 49 °F 48 °F (2007)
Degree Days  
Heating Degree Days 6    
Growing Degree Days 8 (Base 50)    
Moisture  
Dew Point 44 °F    
Average Humidity 61    
Maximum Humidity 86    
Minimum Humidity 37    
Precipitation  
Precipitation 0.00 in - - ()
Sea Level Pressure  
Sea Level Pressure 30.14 in    
Wind  
Wind Speed 4 mph (NW)    
Max Wind Speed 8 mph    
Max Gust Speed -    
Visibility 10 miles    
Events      
Averages and records for this station are not official NWS values.
T = Trace of Precipitation, MM = Missing Value Source: NWS Daily Summary

Daily Weather History Graph

Daily Weather History Graph

Search for Another Location

Airport:

Trip Planner

Search our weather history database for the weather conditions in past years. The results will help you decide how hot, cold, wet, or windy it might be!

Date:

Astronomy

May. 27, 2014 Rise Set
Actual Time 5:19 AM PDT 8:53 PM PDT
Civil Twilight 4:40 AM PDT 9:32 PM PDT
Nautical Twilight 3:49 AM PDT 10:23 PM PDT
Astronomical Twilight 2:40 AM PDT 11:33 PM PDT
Moon 4:53 AM PDT 7:55 PM PDT
Length of Visible Light 16h 51m
Length of Day
15h 34m
Waning Crescent, 1% of the Moon is Illuminated
May 27
Waning Crescent
May 28
New
Jun 5
First Quarter
Jun 12
Full
Jun 19
Last Quarter

Hourly Weather History & Observations

Time (PDT) Temp. Dew Point Humidity Pressure Visibility Wind Dir Wind Speed Gust Speed Precip Events Conditions
12:53 AM 55.0 °F 46.0 °F 72% 30.19 in 9.0 mi North 4.6 mph - N/A   Overcast
1:53 AM 55.0 °F 46.0 °F 72% 30.18 in 10.0 mi Calm Calm - N/A   Overcast
2:53 AM 54.0 °F 46.9 °F 77% 30.17 in 10.0 mi NNW 4.6 mph - N/A   Mostly Cloudy
3:53 AM 53.1 °F 46.9 °F 80% 30.17 in 10.0 mi Calm Calm - N/A   Mostly Cloudy
4:53 AM 52.0 °F 46.9 °F 83% 30.17 in 10.0 mi Calm Calm - N/A   Overcast
5:53 AM 51.1 °F 46.9 °F 86% 30.17 in 10.0 mi SSE 3.5 mph - N/A   Mostly Cloudy
6:53 AM 51.1 °F 46.9 °F 86% 30.17 in 10.0 mi Calm Calm - N/A   Clear
7:53 AM 54.0 °F 46.9 °F 77% 30.17 in 10.0 mi South 3.5 mph - N/A   Scattered Clouds
8:53 AM 55.9 °F 46.0 °F 69% 30.18 in 10.0 mi NNW 4.6 mph - N/A   Overcast
9:53 AM 57.0 °F 45.0 °F 64% 30.17 in 10.0 mi NW 3.5 mph - N/A   Overcast
10:53 AM 59.0 °F 45.0 °F 60% 30.16 in 10.0 mi Variable 3.5 mph - N/A   Overcast
11:53 AM 61.0 °F 46.0 °F 58% 30.15 in 10.0 mi NNW 5.8 mph - N/A   Overcast
12:53 PM 61.0 °F 46.0 °F 58% 30.15 in 10.0 mi NW 5.8 mph - N/A   Overcast
1:53 PM 64.0 °F 42.1 °F 45% 30.14 in 10.0 mi NNW 5.8 mph - N/A   Clear
2:53 PM 66.0 °F 42.1 °F 42% 30.13 in 10.0 mi Calm Calm - N/A   Clear
3:53 PM 66.0 °F 41.0 °F 40% 30.11 in 10.0 mi NW 8.1 mph - N/A   Clear
4:53 PM 66.0 °F 39.9 °F 38% 30.10 in 10.0 mi NNW 8.1 mph - N/A   Clear
5:53 PM 66.0 °F 39.0 °F 37% 30.09 in 10.0 mi NW 5.8 mph - N/A   Clear
6:53 PM 64.9 °F 39.0 °F 39% 30.09 in 10.0 mi NW 6.9 mph - N/A   Clear
7:53 PM 63.0 °F 43.0 °F 48% 30.09 in 10.0 mi NW 8.1 mph - N/A   Partly Cloudy
8:53 PM 60.1 °F 42.1 °F 51% 30.11 in 10.0 mi West 6.9 mph - N/A   Clear
9:53 PM 59.0 °F 44.1 °F 58% 30.12 in 10.0 mi NNW 6.9 mph - N/A   Overcast
10:53 PM 59.0 °F 43.0 °F 55% 30.12 in 10.0 mi NW 5.8 mph - N/A   Overcast
11:53 PM 55.9 °F 44.1 °F 64% 30.12 in 10.0 mi SE 4.6 mph - N/A   Mostly Cloudy